Regional Weather Roundup
Issued by NWS

Home | Current Version | Previous Version | Text Only | Print | Product List | Glossary On
Versions: 1 2 3 4 5 6 7 8 9 10 11 12 13 14 15 16 17 18 19 20 21 22 23 24 25 26 27 28 29 30 31 32 33 34 35 36 37 38 39 40 41 42 43 44 45 46 47 48 49 50
000
ASUS42 KFFC 261503
RWRGA
WEATHER ROUNDUP FOR GEORGIA
NATIONAL WEATHER SERVICE PEACHTREE CITY GA
1100 AM EDT MON SEP 26 2016

NOTE: "FAIR" INDICATES FEW OR NO CLOUDS BELOW 12,000 FEET WITH NO
SIGNIFICANT WEATHER AND/OR OBSTRUCTIONS TO VISIBILITY.

* = USE WITH CAUTION. THE STATIONS MARKED WITH AN ASTERISK MAY NOT
REPORT WEATHER SUCH AS PRECIPITATION, FOG, OR THUNDER AND ARE NOT
QUALITY CONTROLLED BY NWS.

THE REMARK "TC" DENOTES TEMPERATURE READING IN DEGREES CELSIUS.

GAZ001>058-261600-
NORTH GEORGIA

CITY           SKY/WX    TMP DP  RH WIND       PRES   REMARKS
ATLANTA        MOSUNNY   80  67  64 SE10      30.10S
ATHENS         PTSUNNY   76  71  85 VRB6      30.12S
CHAMBLEE       SUNNY     80  66  62 SE7       30.11R
PEACHTREE CITY SUNNY     80  68  66 VRB6      30.10S
ROME           SUNNY     81  66  60 VRB3      30.09R
WEST ATLANTA   SUNNY     80  66  62 S7        30.10R
GAINESVILLE    SUNNY     78  68  71 VRB3      30.15R
CARTERSVILLE   SUNNY     80  68  66 S6        30.10S


CITY           SKY/WX    TMP DP  RH WIND       PRES   REMARKS
DALTON*        SUNNY     81  68  65 SE7       30.10S
LAWRENCEVILLE* SUNNY     81  68  65 SE6       30.11S
MARIETTA       MOSUNNY   80  68  65 S5        30.11R
KENNESAW*      MOSUNNY   79  66  65 S6        30.08R
CANTON*        SUNNY     79  61  53 CALM      30.14R
BLAIRSVILLE*     N/A    N/A N/A N/A MISG      30.16S
$$

GAZ059>098-102>109-261600-
CENTRAL GEORGIA

CITY           SKY/WX    TMP DP  RH WIND       PRES   REMARKS
AUGUSTA-BUSH   PTSUNNY   80  73  79 SE8       30.10R
AUGUSTA-DANIEL PTSUNNY   80  70  71 SE5       30.12R
COLUMBUS       SUNNY     80  67  64 VRB6      30.07S
MACON          MOSUNNY   80  70  71 E6        30.09S
ROBINS AFB     CLOUDY    78  72  81 VRB5      30.08R


CITY           SKY/WX    TMP DP  RH WIND       PRES   REMARKS
LAGRANGE*      SUNNY     84  67  56 S7        30.09R
MILLEDGEVILLE* MOSUNNY   79  73  83 CALM      30.10S
$$

GAZ099>101-110>166-261600-
SOUTH GEORGIA

CITY           SKY/WX    TMP DP  RH WIND       PRES   REMARKS
SAVANNAH       CLOUDY    79  73  82 E5        30.08R
VALDOSTA       MOSUNNY   81  76  84 E7        30.04
ALMA           PTSUNNY   79  75  87 VRB3      30.06S
ST SIMONS      PTSUNNY   83  72  69 E13       30.04S
FT STEWART     CLOUDY    79  73  82 NE5       30.05R
ALBANY         PTSUNNY   82  73  74 E6        30.08S
HUNTER AFB     CLOUDY    78  78 100 E5        30.05R
MOODY AFB      PTSUNNY   82  73  74 NE6       30.04S
BRUNSWICK      PTSUNNY   82  77  83 E12       30.06R HX  91


CITY           SKY/WX    TMP DP  RH WIND       PRES   REMARKS
BAINBRIDGE*    SUNNY     81  73  78 CALM      30.05S
MOULTRIE*      CLOUDY    77  73  88 CALM      30.07S
VIDALIA*       CLOUDY    81  77  89 E6        30.08F
WAYCROSS*      PTSUNNY   83  78  87 NE5       30.05S HX  93
DOUGLAS*       PTSUNNY   77  72  83 NE7       30.07S
$$



USA.gov is the U.S. government's official web portal to all federal, state and local government web resources and services.